Weather History for Pittsfield, MA

Change the Weather History Date:

Sunday, November 3, 2013

  Actual Average Record
Temperature  
Mean Temperature 34 °F 42 °F  
Max Temperature 42 °F 52 °F 71 °F (1927)
Min Temperature 26 °F 32 °F 18 °F (1965)
Degree Days  
Heating Degree Days 31 23  
Month to date heating degree days 56 68  
Since 1 July heating degree days 829 904  
Cooling Degree Days 0 0  
Month to date cooling degree days 0 0  
Year to date cooling degree days 433 290  
Moisture  
Dew Point 24 °F    
Average Humidity 63    
Maximum Humidity 89    
Minimum Humidity 36    
Precipitation  
Precipitation T in 0.13 in 1.34 in (1958)
Month to date precipitation 0.41 0.39  
Year to date precipitation 33.93 38.84  
Sea Level Pressure  
Sea Level Pressure 30.06 in    
Wind  
Wind Speed 8 mph (NNW)    
Max Wind Speed 17 mph    
Max Gust Speed 25 mph    
Visibility 10 miles    
Events      
T = Trace of Precipitation, MM = Missing Value Source: NWS Daily Summary

Daily Weather History Graph

Daily Weather History Graph

Search for Another Location

Airport:

Trip Planner

Search our weather history database for the weather conditions in past years. The results will help you decide how hot, cold, wet, or windy it might be!

Date:

Astronomy

Nov. 03, 2013 Rise Set
Actual Time 6:29 AM EST 4:43 PM EST
Civil Twilight 5:59 AM EST 5:12 PM EST
Nautical Twilight 5:26 AM EST 5:46 PM EST
Astronomical Twilight 4:53 AM EST 6:18 PM EST
Moon 6:30 AM EST (11/3) 4:55 PM EST (11/3)
Length of Visible Light 11h 12m
Length of Day
10h 14m
New Moon, 0% of the Moon is Illuminated
Nov 3
New Moon
Nov 10
First Quarter
Nov 17
Full
Nov 25
Last Quarter
Dec 2
New

Hourly Weather History & Observations

Time (EST) Temp. Windchill Dew Point Humidity Pressure Visibility Wind Dir Wind Speed Gust Speed Precip Events Conditions
12:40 AM 42.8 °F 38.6 °F 37.4 °F 81% 29.78 in 10.0 mi North 6.9 mph - N/A   Overcast
12:54 AM 42.1 °F 37.1 °F 37.0 °F 82% 29.76 in 10.0 mi North 8.1 mph - N/A   Overcast
1:50 AM 41.0 °F - 35.6 °F 81% 29.81 in 10.0 mi Calm Calm - N/A   Overcast
1:54 AM 41.0 °F - 36.0 °F 82% 29.79 in 10.0 mi Calm Calm - N/A   Overcast
1:50 AM 37.4 °F 31.4 °F 33.8 °F 87% 29.84 in 10.0 mi WNW 8.1 mph - N/A   Overcast
1:54 AM 37.9 °F 32.1 °F 34.0 °F 86% 29.83 in 10.0 mi WNW 8.1 mph - N/A   Overcast
2:10 AM 37.4 °F 32.8 °F 33.8 °F 87% 29.84 in 10.0 mi NW 5.8 mph - N/A   Overcast
2:30 AM 37.4 °F 32.1 °F 33.8 °F 87% 29.85 in 10.0 mi WNW 6.9 mph - N/A   Overcast
2:54 AM 37.9 °F 32.1 °F 33.1 °F 83% 29.85 in 10.0 mi WNW 8.1 mph - N/A   Overcast
3:54 AM 36.0 °F 29.6 °F 32.0 °F 86% 29.89 in 10.0 mi NW 8.1 mph - N/A   Overcast
4:54 AM 35.1 °F 28.6 °F 30.0 °F 82% 29.94 in 10.0 mi NW 8.1 mph - N/A   Overcast
5:54 AM 35.1 °F 30.1 °F 28.9 °F 78% 29.97 in 10.0 mi WNW 5.8 mph - N/A   Overcast
6:35 AM 33.8 °F 27.7 °F 26.6 °F 75% 29.99 in 10.0 mi NW 6.9 mph - N/A   Overcast
6:54 AM 34.0 °F 26.0 °F 27.0 °F 75% 30.01 in 10.0 mi NW 10.4 mph - N/A   Overcast
7:54 AM 34.0 °F 26.6 °F 24.1 °F 67% 30.05 in 10.0 mi North 9.2 mph - N/A   Overcast
8:54 AM 35.1 °F 30.1 °F 23.0 °F 61% 30.09 in 10.0 mi Variable 5.8 mph - N/A   Overcast
9:54 AM 35.1 °F 27.4 °F 21.0 °F 57% 30.11 in 10.0 mi NW 10.4 mph - N/A   Overcast
10:24 AM 35.6 °F 29.9 °F 21.2 °F 56% 30.12 in 10.0 mi NNW 6.9 mph - N/A   Overcast
10:54 AM 35.1 °F 27.4 °F 21.0 °F 57% 30.14 in 10.0 mi North 10.4 mph 19.6 mph N/A   Overcast
11:54 AM 37.9 °F 29.6 °F 21.9 °F 53% 30.14 in 10.0 mi NW 13.8 mph 23.0 mph N/A   Clear
12:54 PM 39.0 °F 32.8 °F 21.9 °F 50% 30.14 in 10.0 mi NW 9.2 mph 21.9 mph N/A   Partly Cloudy
1:54 PM 39.0 °F 32.3 °F 18.0 °F 43% 30.16 in 10.0 mi NNW 10.4 mph 21.9 mph N/A   Clear
2:54 PM 37.9 °F 32.1 °F 17.1 °F 43% 30.20 in 10.0 mi NNW 8.1 mph - N/A   Clear
3:54 PM 36.0 °F 29.6 °F 14.0 °F 41% 30.23 in 10.0 mi North 8.1 mph - 0.00 in   Clear
4:54 PM 33.1 °F 28.7 °F 16.0 °F 50% 30.26 in 10.0 mi NNW 4.6 mph - N/A   Clear
5:54 PM 30.9 °F 25.2 °F 16.0 °F 54% 30.29 in 10.0 mi Variable 5.8 mph - N/A   Clear
6:54 PM 30.9 °F 25.2 °F 7.0 °F 37% 30.32 in 10.0 mi North 5.8 mph - N/A   Clear
7:54 PM 30.0 °F 25.2 °F 6.1 °F 36% 30.36 in 10.0 mi NNE 4.6 mph - N/A   Clear
8:54 PM 28.9 °F 22.8 °F 10.0 °F 45% 30.39 in 10.0 mi NNE 5.8 mph - N/A   Clear
9:54 PM 28.0 °F 21.7 °F 12.9 °F 53% 30.40 in 10.0 mi NE 5.8 mph - N/A   Clear
10:54 PM 28.0 °F 24.2 °F 14.0 °F 56% 30.41 in 10.0 mi Variable 3.5 mph - N/A   Clear